www.pogodaiklimat.ru
Время
и дата
18:52 30.12
19:01 30.12
19:10 30.12
19:22 30.12
19:33 30.12
19:40 30.12
19:43 30.12
19:47 30.12
19:52 30.12
19:58 30.12
20:05 30.12
20:12 30.12
20:29 30.12
20:39 30.12
20:52 30.12
21:52 30.12
22:52 30.12
23:15 30.12
23:52 30.12
23:59 30.12
00:52 31.12
01:48 31.12
01:52 31.12
02:13 31.12
02:48 31.12
02:52 31.12
03:52 31.12
04:52 31.12
05:52 31.12
06:52 31.12
07:52 31.12
08:52 31.12
09:47 31.12
09:52 31.12
10:08 31.12
10:35 31.12
10:52 31.12
11:11 31.12
11:40 31.12
11:52 31.12
12:52 31.12
13:33 31.12
13:52 31.12
14:52 31.12
14:55 31.12
15:52 31.12
16:52 31.12
17:52 31.12
Ветер
(напр.,м/с)
Видим. Явления Облачность Т
(С)
Тd
(С)
f
(%)
Тe
(С)
Тes
(С)
Комфортность P
(гПа)
Po
(гПа)
Тmin
(С)
Tmax
(С)
R
(мм)
R24
(мм)
S
(см)
Ю 1 3 км слабая морось, дымка 10/10 120 м +10.6 +9.4 92 +8 +8 1013.6 1012.9 +10.6 +12.2
Ю 1 3 км слабая морось, дымка 10/10 120 м +11.1 +10.0 93 +9 +9 1013.3
Ю 1 4 км слабая морось, дымка 10/10 150 м +11.1 +10.0 93 +9 +9 1013.3
Ю 1 5 км слабая морось, дымка 10/10 150 м +11.1 +10.0 93 +10 +10 1013.3
Ю 1 4 км слабая морось, дымка 10/10 150 м +10.6 +9.4 92 +8 +8 1013.3
Ю 1 3 км слабая морось, дымка 10/10 120 м +10.6 +9.4 92 +9 +9 1013.3
Ю 1 3 км слабая морось, дымка 10/10 180 м +10.6 +9.4 92 +9 +9 1013.3
Ю 1 4 км слабая морось, дымка 10/10 120 м +11.0 +9.0 87 +10 +10 1013.3
Ю 1 2 км слабая морось, дымка 10/10 120 м +10.6 +9.4 92 +9 +9 1013.9 1013.3
Ю 1 2 км слабая морось, дымка 10/10 150 м +10.6 +9.4 92 +9 +9 1013.3
Ю 1 3 км слабая морось, дымка 10/10 150 м +10.6 +9.4 92 +8 +8 1013.3
Ю 1 5 км слабая морось, дымка 10/10 150 м +10.6 +9.4 92 +9 +9 1013.3
Ю 1 6 км дымка 10/10 180 м +10.6 +9.4 92 +9 +9 1013.3
Ю 1 6 км дымка 10/10 180 м +10.6 +9.4 92 +8 +8 1013.3
Ю 1 8 км дымка 10/10 180 м +10.6 +9.4 92 +9 +9 1013.8 1013.3
Ю 1 6 км дымка 10/10 180 м +10.6 +8.9 89 +9 +9 1014.1 1013.6
Ю 1 6 км слабая морось, дымка 10/10 360 м +10.6 +9.4 92 +9 +9 1013.9 1013.3
Ю 1 5 км слабая морось, дымка 10/10 180 м +10.6 +9.4 92 +9 +9 1013.3
штиль 0 6 км дымка 10/10 360 м +10.6 +9.4 92 +10 +10 1013.4 1012.9
штиль 0 6 км дымка 10/10 180 м +10.6 +10.0 96 +10 +10 1012.9
штиль 0 8 км дымка 10/10 360 м +11.1 +10.0 93 +10 +10 1013.4 1012.9 +10.0 +11.1
штиль 0 6 км дымка 10/10 240 м +10.0 +9.0 93 +9 +9 1013.3
штиль 0 6 км дымка 10/10 240 м +10.0 +8.9 93 +9 +9 1014.0 1013.6
В 1 4 км слабая морось, дымка 10/10 180 м +10.0 +8.9 93 +8 +8 1013.3
штиль 0 5 км слабая морось, дымка 10/10 300 м +11.0 +9.0 87 +10 +10 1013.6
штиль 0 5 км слабая морось, дымка 10/10 300 м +10.6 +10.0 96 +10 +10 1014.0 1013.6
штиль 0 5 км дымка 10/10 360 м +10.6 +9.4 92 +10 +10 1013.7 1013.3
Ю 1 6 км дымка 10/10 330 м +11.1 +10.0 93 +10 +10 1013.7 1013.3
Ю 1 6 км туман, дымка 10/10 360 м +10.6 +9.4 92 +8 +8 1014.2 1013.6
Ю 1 10 км дымка 10/10 390 м +10.6 +9.4 92 +8 +8 1014.3 1013.6 +10.0 +11.1 0.3
Ю 1 10 км дымка 10/10 270 м +11.1 +9.4 89 +9 +9 1014.6 1014.0
Ю 1 16 км 10/10 240 м +11.1 +9.4 89 +9 +9 1014.9 1014.3
Ю 2 13 км 10/10 210 м +12.0 +9.0 82 +10 +10 1015.3
ЮЗ 2 13 км 10/10 210 м +11.7 +9.4 86 +9 +9 1016.0 1015.3
Ю 1 10 км дымка 10/10 240 м +11.7 +10.0 89 +11 +11 1015.7
Ю 1 6 км дымка 10/10 210 м +11.7 +10.0 89 +10 +10 1015.3
Ю 2 6 км дымка 10/10 210 м +11.1 +10.0 93 +9 +9 1015.5 1015.0
Ю 1 10 км дымка 10/10 240 м +11.7 +10.0 89 +10 +10 1015.0
Ю 2 16 км 10/10 300 м +11.7 +10.0 89 +9 +9 1014.0
Ю 1 16 км 10/10 360 м +11.7 +10.6 93 +10 +10 1014.0 1013.6
Ю 1 16 км 8/8 330 м +13.3 +10.6 84 +12 +13 1013.5 1012.9 +10.6 +13.3
Ю 1 16 км 8/8 510 м +13.3 +10.0 80 +12 +13 1012.6
Ю 2 16 км 8/8 510 м +14.4 +10.6 78 +13 +14 1013.0 1012.6
Ю 2 16 км 8/8 480 м
[Ac]
+14.4 +10.6 78 +13 +14 1012.3 1011.9
Ю 2 16 км 8/2 480 м
[Ac]
+14.4 +10.6 78 +13 +14 1011.9
Ю 2 16 км 8/2 480 м
[Ac]
+13.3 +10.0 80 +12 +12 1012.6 1011.9
Ю 1 16 км 10/2 630 м
[Ac Ci]
+12.2 +9.4 83 +11 +11 1012.5 1011.9
Ю 1 16 км 10/2 780 м
[Ac Ci]
+11.7 +9.4 86 +10 +10 1012.1 1011.6
Местоположение метеостанции Reagan National Airport: широта 38.8483 долгота -77.0342 высота над уровнем моря 4 м.
В архиве по умолчанию представлена погода в Вашингтоне за последние 1-2 суток. Обновление информации о фактической погоде в базе происходит ежечасно! Архивные данные за месяц целиком и за предыдущие месяцы Вы можете получить, выбрав интересующий диапазон дат из раскрывающегося списка и нажав кнопку "Ввод!".
Внимание! Архив погоды МЕТАР в базе сайта по станциям, не включенным в климатический монитор, хранится не более 60 дней. Нет смысла пытаться выбрать более раннюю дату.
*Определитесь, кто Вы:
Внимание! Время в таблицах - местное (без учета летнего времени). Для получения всемирного времени необходимо вычесть поправку, которая равна -5 ч.
Смотрите также архив погоды в соседних городах и на ближайших метеорологических станциях:
Партнеры нашего сайта:      
Пояснения к столбцам:
  • Ветер - указаны скорость ветра в м/с - средняя за 10 мин, порывы в срок и между сроками (в фигурных скобках) и направление, откуда дует ветер: С - северный,
  • СВ - северо-восточный, В - восточный, ЮВ - юго-восточный, Ю - южный, ЮЗ - юго-западный, З - западный, СЗ - северо-западный.
  • Видимость - горизонтальная дальность видимости в метрах или километрах. При видимости от 1 до 10 км при отсутствии осадков обычно наблюдается дымка, при ухудшении видимости до 1 км и менее - туман. В сухую погоду видимость может ухудшаться дымом, пылью или мглою.
  • Явления - указаны атмосферные явления, наблюдавшиеся в срок или в последний час перед сроком; фигурными скобками обозначены явления, наблюдавшиеся между сроками (за 1-3 часа до срока); квадратными скобками обозначены град или гололедные отложения с указанием их диаметра в мм.
  • Облачность - указаны через наклонную черту общая и нижняя облачность в баллах и высота нижней границы облаков в метрах; квадратными скобками обозначены формы облаков: Ci - перистые, Cs - перисто-слоистые, Cc - перисто-кучевые, Ac - высококучевые, As - высокослоистые, Sc - слоисто-кучевые, Ns - слоисто-дождевые, Cu - кучевые, Cb - кучево-дождевые. Подробнее классификацию облаков см. в Атласе облаков (PDF).
  • T - Температура воздуха - температура, измеренная на высоте 2 м над землей.
  • Td - Температура точки росы - температура, при понижении до которой содержащийся в воздухе водяной пар достигнет насыщения.
  • f - Относительная влажность воздуха - влажноcть воздуха, измеренная на высоте 2 м над землей.
  • Te - Эффективная температура - температура, которую ощущает одетый по сезону человек в тени. Характеристика душности погоды. При расчете учитывается влияние влажности воздуха и скорости ветра на теплоощущения человека.
  • Tes - Эффективная температура на солнце - температура, которую ощущает человек, с поправкой на солнечный нагрев. Характеристика знойности погоды. Зависит от высоты солнца над горизонтом, облачности и скорости ветра. Ночью, в пасмурную погоду, а также при ветре 12 м/с и более поправка равна нулю.
  • P - Атмосферное давление - приведенное к уровню моря атмосферное давление.
  • Po - Атмосферное давление - измеренное на уровне метеостанции атмосферное давление.
  • Tmin - Минимальная температура - минимум температуры воздуха на высоте 2 м над землей.
  • Tmax - Максимальная температура - максимум температуры воздуха на высоте 2 м над землей.
  • R - Количество осадков - Количество выпавших осадков за период времени, мм. При наведении курсора мыши на число - период времени, за который выпало указанное количество осадков.
  • R24 - Количество осадков - Количество выпавших осадков за 24 часа, мм.
  • S - Снежный покров - Высота снежного покрова, см. При наведении курсора мыши на число - состояние снежного покрова и степень покрытия местности в баллах.